Wind_Speed
4 5 5 2 5 6 6 4 4 2 4 2 3 4 6 7 6 6 8 7 3 3 4 2 3 6 7 8 5 6 10 13 11 10 8 6 6 5 5 4 4 5 4 9 14 15 14 17 19 21 23 22 20 25 28 28 29 30 30 29 27 30 29 23 19 21 24 24 23 22 22 23 23 24 25 25 25 24 23 22 20 19 18 18 19 20
5 5 2 5 7 5 4 2 3 1 0 1 3 5 5 5 8 8 8 8 3 2 4 2 6 6 6 6 5 6 10 10 9 10 8 7 6 4 4 5 4 4 3 7 12 15 16 18 20 22 23 22 23 28 29 29 30 30 30 27 27 30 26 19 21 26 27 27 26 24 23 23 22 23 23 22 21 20 20 21 20 19 18 18 19 19
6 3 6 7 3 1 2 3 3 2 2 2 2 3 5 4 7 9 7 4 2 1 6 4 7 4 5 5 5 6 8 7 7 9 8 6 6 4 4 5 4 4 4 5 9 14 16 17 19 22 23 23 25 27 26 28 28 29 30 27 29 30 22 19 26 29 30 31 30 26 24 24 23 22 21 19 18 19 20 20 20 21 20 20 20 21
3 3 4 2 3 3 2 4 4 5 4 3 3 3 6 4 4 7 6 6 2 3 7 2 7 2 3 5 5 5 5 6 6 7 7 6 6 5 4 4 4 4 5 6 8 12 15 17 19 21 22 24 26 25 26 28 29 30 31 31 35 30 21 25 32 32 31 33 32 28 25 25 24 23 21 19 20 21 20 20 22 22 22 21 20 21
3 6 2 3 6 5 3 5 5 5 5 4 4 5 6 6 5 7 10 11 7 4 3 3 4 2 2 3 3 2 1 4 4 5 6 5 6 5 4 5 5 5 5 7 8 11 14 16 18 20 22 24 24 25 27 28 30 33 34 35 38 32 27 32 35 33 32 33 32 30 27 26 25 24 24 22 22 22 21 22 23 23 22 21 20 20
3 4 0 3 6 7 5 4 2 2 5 5 6 7 8 8 8 10 11 11 8 5 0 4 2 2 3 4 4 3 2 3 2 3 5 5 5 4 4 4 5 5 5 7 8 9 12 15 16 18 20 22 23 24 26 28 32 35 35 35 36 32 30 32 33 33 33 32 31 29 28 27 24 22 23 24 23 22 22 23 22 22 21 19 18 19
3 3 3 3 3 6 5 4 2 1 4 6 5 6 6 7 8 11 13 8 5 6 3 1 3 3 2 5 7 5 4 5 3 3 4 4 4 4 3 4 4 5 5 6 6 8 12 15 16 18 21 23 22 22 25 29 32 34 33 33 32 31 30 30 31 32 33 32 30 29 28 28 25 22 23 26 27 25 24 22 21 20 18 16 17 19
3 6 6 5 4 5 4 4 3 3 2 7 5 1 5 9 10 12 12 7 4 4 4 1 2 3 3 5 8 7 5 5 3 2 3 3 4 3 3 3 4 4 5 6 6 8 13 15 16 16 20 21 17 19 24 28 30 30 30 30 30 30 30 30 31 32 32 32 30 29 28 28 27 27 28 30 30 27 25 22 20 18 16 16 16 17
2 3 5 4 4 3 1 5 5 4 1 8 6 4 7 8 11 11 9 7 3 2 5 4 2 1 4 2 6 6 5 5 4 3 2 3 3 2 2 2 3 3 4 5 5 7 10 13 14 14 20 19 14 18 24 26 27 28 28 28 29 30 30 31 32 33 33 34 33 31 29 28 29 30 32 33 31 29 27 24 21 18 17 16 15 17
2 2 3 1 0 2 4 7 4 4 4 8 7 7 7 7 8 7 4 5 3 1 5 6 1 1 4 2 5 5 6 6 4 3 3 3 2 1 1 0 2 2 2 2 3 6 9 11 12 15 19 15 11 17 22 23 26 26 26 27 28 28 30 32 33 34 37 39 37 34 32 31 33 34 34 33 31 31 28 25 22 20 18 17 17 18
5 4 3 3 1 3 3 6 3 6 6 6 7 7 9 7 5 2 1 2 3 2 5 6 1 1 3 3 5 5 3 4 4 2 2 2 1 1 2 1 1 2 2 3 3 5 8 10 10 14 16 11 10 17 20 23 25 24 24 25 26 27 29 31 32 34 38 40 40 38 36 36 36 35 34 33 31 30 29 26 22 20 18 17 18 19
7 3 1 2 2 1 2 4 3 3 1 5 4 5 8 8 4 4 4 4 3 6 6 4 1 1 4 4 3 3 2 6 5 3 2 1 2 2 3 3 2 3 3 4 4 5 7 8 10 15 15 10 12 18 20 23 24 23 24 24 24 25 27 29 30 34 37 39 41 40 39 37 36 35 33 31 30 31 29 24 21 19 18 18 18 18
6 2 3 5 2 3 3 4 5 4 4 6 5 5 7 7 5 5 5 4 3 7 6 2 1 2 7 5 4 6 4 5 4 4 3 2 2 4 4 3 3 3 4 4 4 4 5 7 11 15 15 11 13 18 21 24 23 22 24 23 22 24 26 27 29 33 37 39 41 42 40 37 34 32 32 32 33 31 25 20 19 19 19 20 20 19
6 4 4 5 2 2 4 4 6 6 5 6 4 2 4 4 6 8 6 5 6 8 6 2 2 4 8 4 6 8 6 6 4 4 3 3 3 4 5 4 4 4 5 4 4 5 6 9 13 16 16 14 14 17 21 22 22 22 23 21 21 22 24 26 29 33 36 39 42 43 39 35 31 30 31 32 29 23 18 17 18 19 21 23 22 19
4 5 3 2 2 2 3 2 3 6 6 5 2 2 1 1 5 8 5 5 10 11 8 3 1 5 6 3 6 7 5 6 4 3 2 2 3 4 5 4 5 5 5 4 5 6 8 12 15 17 19 17 16 18 21 22 22 22 22 21 20 21 23 26 30 31 34 39 43 42 38 33 31 29 30 29 23 18 17 18 19 21 23 22 19 17
2 6 5 3 3 1 2 2 1 2 5 3 2 2 2 1 3 6 7 7 9 11 7 3 2 4 2 3 3 5 4 4 3 2 2 4 4 4 5 5 5 6 6 6 7 7 9 14 17 18 20 20 18 19 22 22 22 22 22 20 19 20 23 26 28 30 33 38 42 41 36 33 31 30 30 29 25 21 22 22 23 23 20 18 18 20
1 6 7 6 5 3 2 5 3 1 3 3 2 3 5 4 4 4 9 5 4 9 6 1 3 3 1 3 3 4 2 1 0 1 3 6 4 5 5 5 7 8 8 8 7 8 11 14 17 19 21 20 18 20 22 22 22 22 20 19 19 21 25 27 28 30 34 38 41 38 34 32 32 31 28 28 28 28 27 25 22 19 18 20 22 25
1 7 8 4 5 3 1 5 4 2 1 2 2 5 5 2 3 1 5 5 4 9 5 1 6 7 3 3 3 3 4 6 7 8 9 9 5 4 7 9 10 10 9 10 9 10 12 15 18 20 21 20 19 21 23 22 22 20 18 17 19 22 25 26 29 32 35 38 38 36 33 31 30 28 28 30 32 31 27 24 20 20 22 25 27 29
1 4 7 1 1 8 5 3 4 3 2 1 4 4 3 5 6 2 2 5 6 8 8 8 10 6 4 4 1 1 7 10 12 13 14 12 8 7 10 12 12 11 10 10 11 11 12 15 19 21 22 20 20 23 23 22 21 18 16 17 19 22 24 27 30 33 36 37 35 31 29 28 28 30 31 29 27 26 24 23 21 22 24 26 29 30
1 1 5 1 1 6 6 5 5 6 4 3 3 3 3 2 5 3 1 3 4 5 8 11 10 5 3 2 2 4 7 9 11 12 11 10 9 10 12 12 12 11 11 11 12 11 12 16 20 22 22 20 20 23 23 22 20 16 16 18 20 23 25 29 32 34 35 35 31 30 30 30 30 29 27 24 23 24 23 20 18 20 24 27 29 30
1 1 5 6 4 5 4 3 5 7 5 4 4 5 5 2 3 5 3 1 1 4 7 9 10 7 3 2 4 4 8 8 9 9 7 8 10 12 13 12 12 12 12 13 13 12 13 17 21 21 20 19 20 22 23 21 17 14 16 19 22 24 27 31 33 34 35 33 31 31 30 27 25 24 23 22 22 20 19 18 20 24 27 28 28 27
0 1 4 7 7 6 7 6 5 5 3 1 1 3 5 3 2 7 7 2 1 3 6 8 10 7 4 2 2 5 11 8 5 7 8 9 12 13 12 12 12 13 13 14 15 13 13 17 19 18 17 19 20 22 23 19 13 14 18 20 23 25 28 31 34 35 35 32 29 28 24 22 23 24 23 21 20 20 21 22 24 26 28 27 25 24
1 1 2 6 6 8 11 7 2 1 2 3 1 1 2 1 1 3 8 9 7 6 6 8 9 6 3 1 1 9 15 10 6 9 13 13 13 13 13 13 14 14 14 15 15 14 15 18 16 15 17 19 20 22 20 14 12 16 20 21 23 26 28 31 33 35 33 29 27 25 23 23 24 22 20 20 22 24 25 25 25 26 26 26 25 25
1 2 3 7 7 7 7 3 2 2 1 2 2 2 2 3 2 3 6 7 7 7 7 6 8 5 1 2 6 14 16 12 12 15 17 15 13 13 15 16 15 15 15 15 14 14 17 17 15 15 16 18 20 20 15 12 15 18 20 22 24 26 29 31 33 32 29 26 25 24 24 23 21 19 20 23 25 25 26 26 26 25 25 25 25 25
2 1 3 6 9 9 8 6 4 3 4 5 5 3 3 6 7 5 4 3 3 6 9 8 9 7 4 8 16 16 14 13 14 15 15 15 14 14 15 15 15 15 15 15 14 15 16 16 14 14 16 18 19 16 13 14 17 18 20 22 24 27 29 31 32 29 25 24 24 24 24 23 21 21 23 25 26 26 27 26 26 25 25 25 25 25
2 1 1 2 6 9 10 10 10 11 9 7 8 10 9 9 10 7 5 4 4 7 9 7 10 11 13 19 21 14 12 16 16 14 14 13 14 16 15 15 15 15 15 16 16 16 15 14 15 16 19 21 16 11 12 15 18 20 21 22 24 28 30 31 30 25 23 23 23 23 23 22 22 23 25 26 26 27 27 26 25 24 24 25 25 23
1 1 2 4 5 7 10 11 13 13 12 12 15 15 11 9 8 5 4 5 7 9 8 8 12 18 22 22 18 14 17 20 18 17 16 14 14 16 16 17 17 16 16 17 18 16 14 14 16 18 23 21 11 8 14 16 18 22 24 24 25 28 31 31 27 23 22 23 23 22 23 23 23 25 26 26 26 26 25 24 23 23 24 25 22 19
3 2 5 5 8 10 11 14 17 13 11 15 16 13 10 9 8 8 6 8 10 9 9 13 18 22 22 18 16 19 21 21 19 19 18 16 17 18 19 20 20 18 18 18 17 15 15 16 16 19 24 21 13 13 18 19 21 24 24 24 26 29 32 29 24 22 22 22 22 22 22 24 25 26 27 26 26 25 24 24 24 25 26 25 21 19
4 3 4 3 9 12 10 13 16 11 9 11 10 8 8 9 8 8 9 10 10 8 11 20 23 22 19 15 17 22 22 20 20 19 18 19 21 22 21 20 20 21 21 18 16 15 17 17 17 21 26 23 19 19 20 21 24 24 21 20 24 30 32 26 22 22 22 22 23 23 24 26 26 26 25 24 23 23 24 25 26 26 26 25 23 24
3 4 3 1 10 15 12 11 11 8 10 12 8 5 7 11 11 10 10 11 12 12 15 21 23 18 13 13 18 21 19 17 17 17 20 24 25 24 20 20 22 21 19 17 18 19 20 20 22 26 28 26 23 23 23 25 26 22 19 21 25 30 29 23 21 22 22 23 24 24 25 25 24 23 23 23 23 24 25 25 25 25 25 26 27 28
2 4 2 3 7 13 11 9 10 12 14 13 8 7 10 13 12 12 11 11 13 16 17 18 17 13 9 13 19 19 16 18 20 21 23 24 24 22 20 21 23 20 17 19 21 22 22 22 22 25 26 26 26 27 28 28 24 20 21 25 28 29 26 22 21 22 23 24 24 24 24 23 23 23 23 23 23 23 24 23 23 24 25 26 28 28
3 3 3 5 6 10 10 12 17 18 13 7 5 9 12 11 11 12 12 13 16 19 19 15 11 11 12 15 18 16 18 22 23 25 25 22 20 20 21 22 21 18 19 20 21 21 20 19 21 23 26 28 29 31 28 24 22 23 26 28 28 27 24 21 22 23 24 24 23 24 24 23 24 24 23 23 23 23 23 23 23 23 24 25 25 25
2 2 4 3 4 10 12 15 17 14 9 5 1 6 12 12 13 13 14 17 17 14 12 11 10 14 17 19 20 22 25 24 22 22 23 19 19 20 21 22 20 19 20 20 19 20 19 20 24 27 29 30 30 28 25 23 25 27 27 27 26 25 23 23 23 24 24 24 24 24 24 24 24 24 23 24 24 24 24 23 23 23 23 24 24 23
2 3 3 0 1 9 14 14 11 7 8 4 2 5 12 15 16 17 18 21 17 8 8 12 15 18 19 21 24 26 25 21 20 21 17 14 16 18 20 22 18 18 20 18 18 19 21 25 29 29 30 30 27 26 25 25 27 26 25 26 25 24 24 24 24 24 24 24 24 25 24 24 24 24 24 25 25 24 24 23 23 23 22 22 22 22
3 4 3 1 1 6 9 8 9 8 6 1 2 8 14 14 17 19 20 19 12 9 13 18 20 22 24 24 24 23 23 21 19 18 13 15 17 17 20 21 18 17 18 16 17 21 25 28 28 27 28 28 25 26 28 28 27 25 25 26 25 25 25 25 24 25 25 25 25 25 25 25 25 25 25 25 25 24 23 23 22 21 21 21 20 21
2 2 2 2 2 5 7 7 7 10 6 2 5 12 13 12 14 18 19 14 7 8 16 20 22 25 26 25 22 20 22 21 15 10 10 16 18 17 18 19 17 17 19 18 21 24 27 29 29 29 30 29 27 28 29 28 27 27 27 26 25 25 25 25 25 25 25 26 26 26 26 26 26 25 25 25 25 24 23 22 22 21 21 20 20 21
1 1 1 2 1 2 7 7 7 11 7 3 7 12 11 12 15 15 15 11 6 10 17 21 24 26 25 24 21 19 22 19 11 6 12 17 17 18 20 21 20 20 23 26 27 27 28 30 31 31 32 31 29 29 30 29 28 28 27 26 26 26 25 25 26 26 26 27 27 27 27 26 25 25 25 26 24 24 23 23 22 22 21 21 21 21
2 0 1 2 2 1 5 8 7 9 6 2 7 11 11 15 19 16 11 8 7 14 20 22 25 26 24 22 21 21 20 16 10 9 15 18 18 19 23 26 25 24 26 29 30 28 29 31 32 31 31 29 29 30 30 29 28 28 27 26 26 26 26 26 26 27 28 28 28 29 27 26 26 25 26 26 24 24 25 23 23 25 25 23 22 23
5 2 3 2 2 2 4 5 5 6 4 3 10 14 13 15 18 15 10 8 10 18 22 23 23 23 21 20 20 18 15 13 12 12 16 20 22 23 24 25 26 27 28 30 31 29 29 31 30 30 31 29 29 31 31 29 28 28 27 26 27 26 26 27 28 29 29 29 30 29 28 27 27 26 26 26 26 26 26 25 26 27 26 22 21 23
5 4 3 3 3 4 3 3 3 4 4 7 14 15 14 15 14 10 8 10 16 21 22 21 20 19 18 18 17 13 11 11 13 15 20 24 26 27 27 26 27 29 30 30 30 29 30 30 29 30 31 29 29 31 31 29 28 27 27 27 27 26 27 29 30 30 30 30 30 29 28 28 28 27 27 28 28 28 27 27 27 26 23 21 21 21
3 3 2 2 4 5 4 4 4 3 4 7 13 14 15 15 10 7 7 12 19 23 20 17 17 16 16 16 13 10 10 12 14 17 22 25 25 26 28 28 28 29 30 29 29 30 30 29 28 30 30 29 29 30 30 29 28 28 28 27 26 27 29 31 31 31 31 31 31 30 29 29 29 29 29 29 28 27 27 26 25 23 22 22 21 20
3 3 2 2 5 6 4 4 6 4 2 9 17 15 13 12 7 6 10 14 17 19 17 16 16 15 16 16 12 11 13 15 16 18 20 22 23 24 28 29 28 29 29 28 29 31 31 29 29 31 30 30 30 30 30 29 28 28 28 27 28 30 31 32 31 31 31 32 31 31 31 31 30 29 29 29 29 28 27 26 24 23 22 21 20 20
1 2 4 4 3 5 4 3 5 5 4 15 21 13 9 9 7 9 12 14 15 16 15 14 13 14 16 16 14 14 16 16 17 19 19 21 22 24 27 28 28 29 30 28 29 32 32 29 29 31 31 31 30 30 30 29 28 28 28 28 31 33 32 32 32 32 33 32 31 32 32 31 31 30 29 30 29 27 27 26 25 23 22 21 20 21
1 1 2 4 2 3 3 2 3 7 8 15 15 8 6 8 7 8 10 11 12 13 11 10 12 14 15 15 15 16 16 16 18 19 19 19 22 24 26 27 28 29 29 29 30 32 31 30 30 31 31 31 30 30 29 28 29 30 30 30 33 34 33 33 34 34 33 32 32 32 32 32 32 31 29 29 28 26 26 26 25 24 23 22 20 19
2 3 2 3 2 1 4 7 7 6 8 10 8 5 8 10 8 8 10 10 11 10 9 10 13 15 15 15 15 15 14 15 18 19 18 19 21 23 25 26 28 29 29 29 30 31 31 30 30 31 31 32 31 29 28 29 31 31 31 33 35 34 33 35 36 35 33 33 32 32 32 32 32 30 29 28 26 25 24 24 23 22 22 21 20 18
3 2 2 2 4 4 7 9 7 5 7 8 4 3 7 9 8 9 10 10 10 10 9 10 13 14 15 15 14 14 14 15 17 17 17 19 21 23 25 26 27 28 28 29 31 31 31 30 30 31 32 32 32 30 29 32 33 32 33 36 36 34 34 35 35 34 33 33 33 32 32 32 31 30 29 28 26 25 24 23 22 21 21 20 19 17
2 2 2 1 3 4 6 7 7 8 11 10 5 5 8 8 7 8 9 9 10 11 12 13 14 15 15 14 13 14 15 15 16 16 16 17 20 22 24 26 27 28 28 29 30 31 31 30 31 31 32 32 32 30 31 35 36 34 35 37 35 35 36 35 34 33 33 33 32 32 31 31 31 31 30 28 27 26 25 25 23 21 20 19 18 17
2 2 1 2 3 4 7 9 8 8 9 6 4 7 8 8 8 9 11 11 12 13 15 17 16 16 15 14 14 15 15 15 16 15 14 16 19 22 23 25 27 27 28 29 30 31 31 30 31 31 31 31 31 32 34 37 37 37 37 37 36 36 36 35 34 33 32 32 31 31 30 30 30 31 31 30 28 26 25 25 25 23 21 20 18 19
1 1 2 3 4 5 7 6 8 9 7 4 6 9 8 8 9 11 13 13 12 12 15 16 17 17 15 15 17 16 13 14 17 18 16 17 20 22 24 26 26 26 27 28 29 30 31 31 31 31 31 31 33 35 37 38 38 38 38 37 37 37 36 35 34 32 31 31 30 30 31 30 29 30 30 30 31 29 27 25 22 20 22 22 20 19
1 1 1 3 4 5 6 5 7 8 7 7 10 11 9 10 11 11 12 12 11 12 14 14 15 17 16 16 18 17 14 14 19 21 19 19 20 22 25 26 26 26 27 28 29 31 32 32 32 31 31 32 34 36 37 38 38 38 38 38 38 37 36 35 33 31 30 29 29 29 30 30 30 30 28 27 28 29 31 30 24 18 17 20 21 20
2 3 2 1 3 6 7 6 5 5 7 7 9 8 8 11 11 9 10 11 12 16 17 15 14 16 16 17 19 18 17 18 20 21 20 20 22 23 25 26 25 26 27 28 29 32 34 34 33 32 32 34 35 36 37 38 38 38 39 39 39 38 37 35 31 28 28 28 28 29 30 29 29 29 28 26 25 24 26 29 29 24 19 19 22 22
Wind_Direction
63 55 36 329 288 293 281 219 188 222 187 223 287 253 267 278 276 271 270 282 1 346 274 238 348 2 3 -0 39 94 104 104 109 104 101 104 94 89 84 76 83 76 68 63 43 23 16 10 6 7 3 3 7 2 353 347 341 335 331 327 328 331 327 324 330 338 337 332 329 326 323 322 320 319 316 310 304 299 297 299 301 302 303 302 299 298
60 61 346 266 258 266 290 214 173 289 137 336 304 282 289 275 276 276 265 285 9 25 281 58 45 13 7 8 42 96 103 100 107 106 104 106 96 84 77 68 69 66 55 55 33 15 9 6 8 9 6 5 360 352 346 342 337 334 331 326 330 333 331 332 338 339 335 330 327 323 320 319 317 319 317 311 306 303 304 305 306 307 306 305 304 302
35 27 281 278 266 170 36 68 106 21 0 326 314 303 301 287 292 286 252 262 36 2 298 49 75 17 11 34 44 72 100 104 105 109 111 108 97 77 70 68 62 57 43 38 22 10 5 6 11 9 4 360 352 346 343 340 339 337 334 331 332 333 332 334 335 335 333 330 325 319 318 318 316 317 316 312 308 308 311 313 313 313 312 311 310 308
10 292 277 322 42 96 15 15 46 20 354 311 312 307 291 299 321 300 284 290 300 253 278 33 87 70 35 58 47 40 89 107 104 105 105 104 96 80 74 74 63 54 35 25 14 4 5 8 9 5 359 354 349 346 344 343 344 343 341 338 334 329 329 335 333 331 330 329 323 315 314 317 316 315 313 310 307 309 313 314 315 314 313 313 311 311
277 267 265 44 31 53 14 349 27 12 331 296 277 258 270 293 275 264 289 303 308 273 248 83 84 162 146 106 94 81 83 102 107 98 93 93 90 84 78 74 61 50 35 22 9 0 4 5 2 359 356 352 350 347 347 350 352 351 347 344 340 335 336 339 335 331 330 328 322 315 314 315 315 314 312 310 306 307 309 310 312 312 310 308 308 310
285 272 0 8 4 44 42 340 4 11 329 308 270 232 239 284 284 274 295 311 319 308 286 76 347 266 162 172 176 186 186 131 122 95 97 93 84 78 67 66 50 45 42 22 9 2 1 357 353 354 353 352 350 350 355 359 357 353 348 345 343 342 341 339 337 334 332 327 321 317 314 309 306 306 306 306 304 301 302 304 306 307 306 306 306 308
300 331 50 60 19 34 32 345 300 147 353 311 257 208 234 283 290 288 300 308 303 290 290 46 262 254 200 207 204 199 187 162 154 92 96 88 77 65 53 59 38 33 34 14 6 2 357 352 349 351 351 349 348 354 0 359 354 351 347 344 343 341 339 337 336 337 334 329 323 318 314 306 300 298 298 300 299 296 297 298 300 303 304 304 304 304
302 340 14 41 36 26 16 335 270 169 358 286 245 169 293 296 288 288 296 282 262 296 307 290 183 227 248 212 191 185 185 187 180 116 96 83 72 54 46 52 38 34 21 5 2 0 356 349 346 345 342 338 345 0 359 354 350 348 345 343 341 340 338 337 337 338 338 336 330 325 321 314 308 306 303 300 295 292 292 293 296 298 299 302 303 301
269 331 336 353 7 12 316 292 268 158 214 272 276 307 287 277 274 276 284 277 281 1 304 292 91 252 266 189 168 183 197 207 193 148 116 93 75 42 37 48 43 40 16 4 355 350 345 338 334 333 331 331 348 -0 353 349 347 344 342 339 339 340 341 340 339 339 340 338 334 328 324 317 313 310 307 302 294 287 287 288 290 291 295 299 297 297
271 258 252 123 302 252 261 285 273 170 234 280 305 310 287 271 269 267 271 294 332 58 267 276 67 222 269 184 162 205 228 217 192 154 141 126 111 18 321 35 36 20 350 334 317 327 329 327 326 327 327 328 345 351 346 345 342 339 338 336 335 338 340 340 340 340 339 336 331 325 320 316 312 308 306 302 294 286 283 281 281 285 290 293 292 298
306 292 199 138 226 228 261 291 262 199 243 319 344 326 314 299 288 303 46 10 356 298 252 254 201 111 287 239 178 206 213 167 164 168 174 180 183 299 290 260 329 302 290 283 287 311 316 317 321 326 328 324 332 339 340 341 338 336 334 332 332 333 336 337 337 337 336 333 329 322 317 314 311 308 304 299 292 285 279 274 274 280 285 290 294 298
329 339 192 271 302 61 337 300 288 239 292 4 353 334 334 324 330 351 6 33 355 294 270 242 208 113 260 258 186 182 145 128 142 168 187 236 248 281 269 244 263 271 277 281 281 292 297 307 325 334 333 318 320 332 336 337 335 333 331 329 327 328 332 334 333 334 333 331 327 321 316 312 309 307 302 296 290 284 276 271 274 281 286 291 294 292
325 289 283 312 350 49 4 325 321 335 16 359 341 1 351 332 333 330 330 344 281 276 276 245 8 276 260 262 162 163 170 153 153 160 170 210 246 275 268 257 276 276 273 275 278 291 305 323 333 335 326 303 307 325 331 332 330 328 327 324 322 324 328 330 330 331 330 328 326 321 314 309 307 306 303 298 289 279 272 274 282 288 291 294 292 287
321 301 321 342 340 35 52 27 337 328 343 333 328 10 346 328 320 310 312 310 282 280 279 274 12 285 281 277 162 162 167 164 164 167 174 197 236 272 275 268 277 273 271 275 290 312 329 331 327 325 314 291 294 317 325 326 325 322 321 319 317 320 324 327 328 328 327 327 324 319 312 306 305 306 306 301 289 276 275 284 289 292 293 292 289 285
328 311 312 345 311 348 50 77 289 295 305 300 192 148 330 314 302 300 301 300 297 296 298 334 349 254 282 301 152 153 155 154 154 163 182 228 242 272 276 263 272 279 282 290 306 321 325 319 315 313 306 289 288 311 321 321 320 318 317 315 314 318 322 324 325 325 324 323 321 317 309 303 304 305 306 303 295 289 291 292 292 292 290 286 284 287
288 273 263 283 282 109 53 295 239 310 309 285 143 84 338 231 252 281 280 278 292 297 296 318 262 222 270 318 138 140 153 146 134 156 236 271 258 270 274 266 281 300 311 312 319 324 314 308 303 301 297 285 285 307 316 316 316 315 313 312 312 315 319 322 323 322 320 320 318 312 305 301 303 304 303 302 301 300 297 292 289 286 282 283 288 293
314 278 284 316 313 149 127 312 307 110 314 322 26 324 285 230 180 258 289 296 316 303 291 219 277 287 332 279 204 176 196 169 156 240 280 289 271 264 282 304 316 321 322 317 317 310 301 298 295 295 292 279 281 303 311 311 312 310 308 309 310 314 318 319 320 320 319 318 314 308 301 299 301 300 299 302 305 303 298 293 288 285 287 293 298 299
224 285 291 316 312 273 244 301 279 206 0 347 314 299 290 258 135 151 297 314 316 294 285 208 291 300 313 287 217 210 309 338 331 326 328 328 322 296 314 331 326 321 318 314 311 302 296 294 292 295 291 279 284 302 308 308 308 305 303 306 311 316 318 319 319 318 318 316 311 305 299 297 298 299 300 302 302 301 300 298 296 298 300 301 302 302
155 295 306 38 290 298 320 356 316 321 24 285 269 308 2 341 328 357 312 307 307 294 291 297 298 295 276 275 247 337 339 337 329 333 337 337 336 322 325 328 318 317 316 312 312 306 298 293 292 295 290 281 291 304 307 308 305 301 301 307 315 318 319 320 320 318 317 315 309 303 299 298 300 301 300 300 301 302 303 301 301 303 304 303 303 301
122 278 297 302 343 312 334 11 334 321 340 345 329 348 29 326 303 306 248 296 311 297 293 299 304 305 265 268 39 7 334 326 324 331 334 326 323 320 321 321 317 319 318 314 314 308 299 293 292 293 286 284 298 307 308 306 302 299 307 317 321 321 321 320 319 317 316 314 308 304 302 300 299 299 298 300 303 304 302 300 303 306 306 306 304 299
41 171 265 293 332 341 337 331 309 306 313 343 0 340 332 328 310 310 295 233 339 298 300 302 299 303 320 52 58 352 324 320 316 317 314 306 312 315 316 317 319 320 318 316 313 305 300 295 293 290 286 293 307 311 308 304 302 308 320 325 325 323 322 320 318 316 314 311 308 304 302 301 302 303 301 301 304 305 306 307 309 309 307 307 305 302
41 180 259 296 322 327 305 279 265 275 263 227 0 322 303 288 329 330 312 298 341 295 289 294 292 302 354 68 100 337 334 334 309 299 304 306 310 312 314 318 322 320 316 314 311 307 303 298 294 293 296 306 313 312 308 307 314 327 328 327 324 322 320 319 318 317 313 311 308 304 303 306 310 309 305 306 311 311 308 307 306 306 306 305 303 303
138 115 271 289 288 283 290 299 352 0 169 163 190 282 280 272 49 336 304 307 312 290 273 276 281 301 4 134 251 329 339 350 349 326 321 319 319 321 323 324 321 316 312 310 309 307 306 303 302 304 308 314 316 313 313 320 333 334 330 327 324 320 319 318 318 316 313 310 308 306 306 307 309 310 312 315 315 311 306 303 301 302 302 298 294 294
84 67 324 305 298 285 293 330 48 41 20 334 304 327 338 324 312 250 270 299 298 290 303 293 283 306 39 197 297 328 345 356 345 332 327 324 326 328 326 323 318 313 311 311 311 311 311 312 313 313 315 320 320 319 327 338 336 331 328 326 323 320 319 319 318 316 312 310 309 309 308 307 307 310 315 316 313 311 308 304 301 300 299 295 291 289
305 0 355 329 323 324 332 336 321 322 345 330 310 319 331 326 325 303 288 321 284 299 330 317 292 310 333 314 319 334 351 346 330 328 329 327 327 326 322 318 315 313 315 318 321 320 317 316 317 322 329 329 325 327 338 337 330 327 324 322 321 320 320 320 319 316 313 311 311 311 309 308 311 310 310 311 310 309 307 305 303 300 297 295 291 286
283 289 37 340 320 321 323 323 322 325 329 325 314 320 334 340 340 330 326 342 311 310 330 315 295 308 319 321 326 339 348 335 327 330 330 326 324 321 319 318 317 319 324 327 327 324 325 327 330 340 340 331 327 337 339 332 327 324 321 321 322 323 323 322 319 315 314 314 313 312 311 312 316 314 310 308 305 302 303 303 302 300 297 295 289 282
85 285 233 212 236 273 288 293 303 312 315 312 312 323 340 349 354 5 355 333 316 310 312 304 304 311 316 323 334 345 343 335 332 331 327 323 323 320 319 322 326 332 334 331 331 335 344 343 340 345 341 331 333 346 334 329 329 326 322 321 324 327 326 322 319 316 316 315 314 313 312 312 312 310 306 304 301 298 299 301 302 303 302 298 290 286
80 315 265 229 236 251 270 285 295 304 300 296 308 332 352 353 8 21 351 319 322 319 308 314 317 314 315 329 345 344 339 335 330 326 323 324 326 324 324 328 336 340 335 333 340 348 353 349 344 347 344 338 337 337 333 332 332 328 324 322 324 328 327 321 317 317 317 316 316 315 313 311 309 306 302 300 298 297 298 301 302 302 300 298 295 297
114 266 263 265 281 277 279 286 292 296 283 289 318 353 353 347 0 359 330 315 320 312 302 313 317 314 318 338 347 339 335 331 325 321 323 326 327 327 332 339 342 340 337 342 353 357 355 352 346 342 340 336 334 337 340 338 332 327 325 325 327 327 325 322 318 318 317 317 316 314 311 308 305 303 302 301 301 301 301 301 301 299 298 297 297 299
129 269 270 309 298 297 299 288 287 302 303 310 336 6 353 347 345 336 323 312 309 300 297 308 313 315 327 343 336 330 328 322 317 321 328 330 330 333 341 347 344 341 346 356 1 357 350 343 338 338 338 340 343 345 343 334 329 328 331 331 329 326 325 324 320 319 319 317 315 311 309 307 306 306 308 308 307 305 302 300 299 298 298 298 297 299
44 296 318 32 312 304 307 303 313 323 315 316 336 -0 354 346 337 330 325 319 315 309 309 316 317 315 328 334 324 321 322 320 324 333 334 332 333 340 350 351 344 347 1 3 355 346 341 339 342 346 347 348 346 340 333 329 331 337 335 330 327 326 326 325 323 322 321 318 315 314 313 313 314 314 312 310 308 306 304 303 301 299 298 298 297 297
25 308 332 25 335 305 315 332 328 320 315 323 349 351 346 339 333 331 330 330 328 322 324 332 328 320 328 328 321 322 326 328 336 341 335 333 342 352 356 351 348 355 3 357 346 342 345 348 349 349 345 341 336 332 332 338 345 342 333 328 328 329 328 327 326 325 322 321 320 320 319 318 317 315 313 312 310 309 307 305 303 299 296 295 295 294
63 344 328 1 327 304 317 328 318 309 324 344 353 343 339 336 337 336 332 333 333 330 334 339 332 326 327 327 326 329 333 338 345 341 331 338 355 1 356 349 350 358 354 347 344 347 351 349 344 342 339 335 333 337 344 350 345 337 333 332 332 333 332 330 328 326 325 325 324 322 321 319 317 316 315 314 312 310 307 304 300 298 295 293 292 291
36 10 319 245 290 300 308 316 311 320 348 344 139 20 351 344 345 341 335 335 338 351 356 338 327 326 327 329 332 332 335 343 343 331 330 356 5 357 351 348 352 354 346 345 350 349 347 344 341 339 337 336 341 349 351 346 339 335 336 337 336 336 335 332 330 329 328 326 325 324 323 321 320 318 315 313 312 308 306 303 300 298 296 293 291 289
341 352 311 232 223 280 298 328 340 338 339 218 115 14 356 349 346 337 330 333 341 358 354 338 328 328 330 332 334 333 333 337 332 323 341 12 5 352 349 347 349 349 345 350 354 347 345 344 340 339 342 346 352 353 348 343 340 338 339 340 338 337 336 333 332 331 329 327 326 326 325 323 320 318 315 313 311 308 306 303 301 299 297 294 291 289
307 352 318 272 278 304 326 356 338 306 301 83 25 356 351 348 345 337 330 333 351 3 351 337 329 331 333 332 336 336 330 327 322 322 358 10 4 359 354 347 346 349 349 353 352 347 347 346 343 344 346 346 349 350 345 342 341 339 339 341 339 337 337 335 333 331 329 328 327 326 325 323 320 316 314 314 312 309 308 306 303 301 299 297 295 292
235 71 17 337 340 335 327 320 291 285 295 40 9 349 347 345 347 344 328 324 359 6 349 336 331 333 335 335 339 337 327 323 320 338 4 8 6 4 354 344 344 350 354 353 348 345 347 347 345 345 343 341 344 346 343 341 341 340 340 340 340 338 338 336 334 331 330 328 327 326 324 321 318 315 313 314 312 309 309 308 306 305 305 302 299 300
42 66 105 344 333 17 329 315 313 315 318 5 340 338 352 350 343 336 312 304 358 1 346 338 335 336 337 339 340 336 330 329 330 339 353 357 -0 360 350 342 345 355 358 351 343 344 350 349 346 343 341 342 345 344 342 342 343 343 341 341 340 339 337 336 334 332 331 328 327 325 322 319 319 316 313 313 312 310 310 308 308 312 315 311 306 308
28 35 116 96 312 337 339 316 312 309 299 337 337 341 1 351 330 320 311 317 353 353 343 339 338 339 340 340 339 338 337 334 329 332 343 348 351 352 344 342 350 357 355 346 342 348 352 348 345 344 344 345 345 344 344 344 344 343 342 341 340 338 337 336 334 332 330 327 325 323 321 320 319 316 314 313 313 313 312 310 313 317 319 315 311 313
15 5 44 41 309 295 294 278 280 265 267 334 344 349 356 339 322 331 337 328 341 346 342 341 341 340 342 339 336 340 344 333 323 325 334 339 342 342 341 346 353 352 346 343 347 353 351 346 344 345 345 345 344 343 344 344 344 344 342 341 340 339 338 336 333 330 328 325 324 322 320 321 320 317 317 317 316 316 316 316 318 318 316 314 314 315
0 347 11 2 310 307 286 270 296 278 261 329 347 357 354 338 337 9 345 320 334 340 338 342 343 340 341 339 335 337 332 321 316 320 329 335 336 338 343 348 350 346 342 344 352 355 349 344 344 344 344 344 343 343 344 344 344 343 341 341 341 339 337 334 331 329 327 325 323 322 321 323 324 322 321 321 320 320 319 320 321 319 317 317 316 315
1 337 325 326 321 324 309 289 306 281 238 357 356 3 11 1 352 347 325 320 332 334 334 341 342 338 340 338 334 330 321 317 321 325 330 335 336 339 344 346 345 345 343 346 354 354 347 343 344 343 343 344 343 343 344 344 344 343 341 341 340 337 335 333 331 329 327 325 324 324 325 327 327 326 326 326 326 324 322 324 325 323 322 322 321 321
332 306 320 324 321 325 322 334 333 310 355 10 360 1 25 16 338 320 324 325 329 332 336 341 339 340 340 334 330 328 321 321 330 332 333 338 339 341 343 344 345 346 344 346 350 349 345 344 343 342 342 342 343 344 344 344 344 343 341 339 337 335 333 332 332 329 327 327 326 327 328 329 329 330 329 330 330 326 323 326 328 328 329 328 327 326
224 139 321 306 332 3 336 304 312 313 345 6 358 346 1 352 331 331 332 324 327 337 343 339 334 338 339 332 327 326 323 328 335 336 338 340 341 342 342 343 346 345 343 345 346 345 345 344 342 341 341 341 342 344 345 345 343 341 340 339 337 335 334 333 333 331 330 330 329 329 330 330 331 332 331 331 330 327 325 327 329 330 332 332 330 328
208 153 182 258 259 206 242 254 279 313 345 357 351 340 341 337 339 352 343 328 329 342 347 338 332 333 336 333 327 324 328 335 338 338 341 340 339 341 342 343 345 343 342 343 344 344 344 342 339 339 339 340 343 344 345 345 343 340 339 338 337 336 335 334 333 332 331 331 331 331 331 331 332 333 333 333 332 327 325 327 328 328 330 331 330 327
231 171 153 246 277 258 250 263 285 325 338 335 338 352 339 336 348 359 349 335 333 341 346 339 330 330 334 332 328 328 334 340 339 339 341 339 337 339 341 342 343 342 342 343 343 343 343 341 339 339 338 339 343 344 344 344 343 340 338 338 338 338 336 335 334 333 332 332 332 332 333 333 333 334 335 336 336 333 330 329 327 327 328 329 327 323
276 217 172 227 303 304 289 288 312 334 326 323 339 352 339 345 2 2 351 340 337 341 342 334 329 331 331 329 331 333 336 340 340 339 340 339 336 338 341 342 341 341 343 343 342 342 342 340 340 340 338 339 342 343 342 342 343 342 341 340 340 339 337 336 335 333 332 333 332 333 335 334 334 335 336 337 338 338 337 336 334 329 325 324 323 321
262 229 234 274 285 272 263 273 306 320 299 293 338 349 342 350 357 358 356 348 341 340 335 330 331 334 331 332 338 338 337 340 342 340 340 337 335 337 340 341 340 340 341 342 342 342 342 340 339 338 337 338 340 341 341 342 342 343 343 342 342 341 339 338 337 334 333 333 334 335 336 336 335 337 337 338 339 339 338 338 337 332 328 327 322 316
285 324 265 277 281 263 254 279 334 334 300 297 352 353 355 359 352 351 353 348 343 340 335 332 334 335 333 337 342 342 339 340 342 343 340 335 334 337 339 339 339 339 339 340 341 341 341 339 338 337 336 338 340 341 341 342 342 344 344 344 344 343 341 339 337 335 335 335 336 337 337 337 338 339 338 338 340 341 341 341 337 330 330 335 333 325
29 324 262 302 309 298 298 334 359 340 310 319 344 350 2 6 354 346 345 345 345 344 338 334 333 333 335 343 347 346 342 339 341 343 338 332 334 336 337 337 337 337 339 340 339 340 340 340 338 337 337 338 340 341 341 341 342 344 346 346 345 345 343 340 338 336 336 336 336 337 337 337 337 338 338 338 339 340 343 347 350 346 336 336 341 344
165 198 205 304 275 281 306 334 356 328 298 309 335 349 4 5 356 344 343 346 344 341 341 340 335 332 336 345 349 349 343 338 340 340 336 332 333 335 337 337 336 336 338 339 339 339 340 340 339 339 339 340 341 341 341 342 343 345 346 347 347 346 344 342 339 336 335 335 336 336 337 336 336 337 338 339 339 339 340 344 351 359 1 356 354 356
Height
829 823 830 833 833 835 837 841 838 835 837 835 838 839 838 837 830 824 816 811 814 812 807 807 812 825 831 828 829 828 825 828 832 833 836 838 838 839 839 839 840 840 840 841 841 842 842 841 840 839 837 836 835 834 833 832 830 828 826 823 821 819 818 816 815 813 812 809 807 805 802 801 800 799 798 796 795 794 793 792 790 789 788 788 787 787
830 827 834 837 837 841 841 844 844 839 839 837 836 836 837 835 826 818 815 812 814 814 809 807 818 835 837 831 832 830 829 832 833 834 836 838 839 839 839 839 839 840 840 841 841 841 840 839 838 837 836 835 834 833 832 830 828 826 824 822 820 818 816 815 814 811 810 808 806 803 800 799 798 797 796 794 793 793 791 790 789 788 787 786 785 784
830 831 836 839 843 845 843 844 842 837 836 836 837 838 834 831 823 812 809 811 815 815 809 809 825 840 840 837 836 833 833 835 834 834 835 836 838 839 839 839 839 840 840 840 840 840 839 838 837 836 836 835 834 832 831 829 827 825 822 820 818 816 814 813 811 810 807 805 803 801 799 798 796 795 794 792 791 790 789 788 787 786 785 784 783 782
833 834 838 843 845 839 835 838 837 834 835 834 836 837 829 828 829 817 806 808 815 816 812 814 832 844 842 840 841 839 838 837 836 835 835 836 837 838 838 839 839 840 840 840 840 838 838 837 836 836 835 834 833 831 829 827 825 823 821 819 816 814 812 811 809 808 805 803 801 800 798 796 794 792 791 790 789 788 787 786 785 784 783 782 781 780
833 837 844 844 841 834 831 834 835 836 837 836 835 833 827 826 831 826 817 814 814 814 815 819 831 840 842 842 843 843 840 840 840 837 837 836 837 838 838 839 839 839 840 839 838 837 837 836 836 835 834 833 831 829 828 826 824 822 820 818 816 813 812 810 808 806 804 802 800 798 796 794 792 789 788 786 785 784 784 783 782 781 781 780 779 778
834 842 846 839 835 835 833 832 837 841 841 840 832 825 825 825 828 829 826 823 816 810 811 815 819 828 841 846 843 843 842 841 840 839 838 837 838 839 839 839 839 839 839 839 838 838 837 836 835 834 833 831 829 828 827 825 824 822 821 819 816 814 812 810 808 806 804 802 799 797 795 793 790 787 785 783 782 781 780 780 779 778 778 777 776 775
837 842 843 838 836 836 833 833 840 843 844 842 829 824 828 829 832 828 824 827 821 810 810 813 814 823 839 844 841 842 843 841 841 840 839 838 838 839 839 839 839 839 839 838 837 837 836 835 833 832 831 830 828 827 826 825 824 823 821 819 817 814 812 810 808 806 804 801 798 796 794 791 789 786 784 782 780 779 778 777 776 775 775 774 773 772
839 838 837 840 838 835 835 836 838 842 845 836 825 829 833 829 828 825 824 829 823 816 814 811 813 818 824 830 835 840 842 840 841 841 840 839 839 839 839 839 839 838 837 836 836 834 834 833 832 832 830 829 828 826 825 824 823 822 821 819 817 814 812 810 807 805 803 800 797 795 792 790 788 786 783 780 778 776 775 774 773 773 772 771 770 769
842 838 837 841 840 837 837 836 838 844 842 830 826 834 835 830 828 825 825 825 824 826 818 807 814 817 812 820 834 840 840 840 839 841 840 839 839 839 839 839 838 837 836 835 835 833 833 833 832 832 830 828 827 825 824 823 822 820 819 817 815 813 811 808 806 803 801 800 797 794 792 789 786 784 782 779 777 774 773 771 770 769 769 768 767 766
842 842 843 843 840 838 836 836 839 842 837 830 831 832 829 828 825 823 828 826 825 829 819 807 814 816 812 822 839 840 835 834 836 838 838 838 839 838 838 837 836 836 835 834 834 833 832 832 831 830 828 826 825 823 822 821 820 818 816 814 812 810 808 806 804 801 799 798 796 794 791 788 785 782 779 776 774 772 770 768 767 766 765 764 763 763
844 847 847 843 840 839 838 838 837 839 838 833 831 829 824 822 818 822 832 829 824 822 813 809 814 819 819 820 827 833 828 828 833 836 837 838 838 837 836 836 835 834 834 832 831 830 829 829 829 827 826 824 822 821 820 818 817 815 814 812 809 807 806 803 801 800 798 796 795 793 790 786 783 780 777 774 771 770 768 766 764 763 762 761 760 760
844 842 842 842 842 842 840 838 835 839 843 837 834 835 830 822 819 822 827 830 831 822 812 812 817 824 824 811 813 827 829 829 834 835 836 837 836 836 835 834 834 833 831 830 828 827 826 826 825 823 822 821 819 818 816 815 813 812 810 809 807 805 803 802 800 798 797 795 793 790 787 784 781 778 775 771 768 766 765 763 762 761 759 758 758 757
841 837 842 842 843 845 841 838 836 835 838 838 838 841 842 840 838 835 833 835 836 825 812 814 821 824 813 803 814 829 830 831 833 833 834 835 835 835 834 833 831 830 829 828 826 824 823 822 820 819 818 817 816 815 813 812 810 809 808 806 804 802 801 800 798 796 795 792 790 787 784 781 778 775 772 769 765 763 761 761 760 759 758 756 755 754
844 837 843 839 839 844 842 844 846 840 838 841 842 844 850 856 857 852 845 841 835 821 808 812 825 823 805 803 821 829 828 831 832 832 834 834 834 834 832 831 830 829 827 825 823 820 818 818 817 816 815 814 813 811 810 809 808 806 805 804 802 800 799 797 795 794 792 789 787 784 781 778 775 772 769 765 762 759 758 758 757 757 756 754 753 752
858 842 840 838 840 844 843 848 853 848 843 844 843 845 849 854 860 858 851 848 841 824 815 820 825 818 804 810 824 827 828 832 832 833 835 834 834 833 831 830 829 827 824 822 819 817 815 815 814 813 812 810 808 807 806 805 804 803 801 800 799 798 796 795 793 791 789 786 784 781 778 775 772 769 766 763 759 757 756 755 755 754 753 752 750 749
870 852 843 843 846 847 847 848 850 847 844 845 844 844 846 847 850 851 845 844 843 834 827 825 818 815 818 824 828 830 831 832 833 835 835 834 834 833 832 830 827 824 821 819 816 814 814 813 812 810 808 806 805 804 802 801 800 799 798 797 796 795 793 792 790 788 786 784 780 777 774 771 769 766 763 760 757 756 754 753 752 750 749 748 747 746
877 856 844 847 847 846 850 849 848 849 844 844 845 842 842 844 847 853 845 837 844 844 831 819 813 817 826 828 828 831 832 830 832 835 834 834 833 833 831 826 823 821 819 817 815 814 812 811 809 807 805 803 802 800 799 798 797 796 795 793 792 791 790 788 787 785 783 780 777 773 771 768 766 764 761 758 756 754 752 750 748 747 746 745 744 743
890 867 847 851 848 844 852 850 846 851 848 847 850 844 842 845 848 854 853 849 855 851 828 814 816 819 819 822 827 832 832 832 832 831 830 830 830 829 826 822 821 819 818 816 814 813 811 808 806 804 802 800 799 797 796 795 794 793 792 791 789 788 787 785 784 782 780 777 772 769 766 764 762 760 758 756 753 752 750 748 746 744 743 742 741 740
898 877 853 856 856 849 851 849 845 849 851 850 851 847 850 854 852 856 864 866 864 854 833 818 819 821 815 816 827 834 836 836 833 829 828 828 828 827 823 821 820 818 817 815 812 810 808 806 803 801 798 797 796 794 793 791 791 790 789 788 787 786 784 783 781 779 776 773 769 765 762 760 758 757 755 753 751 749 747 745 743 742 740 739 738 737
896 886 865 859 861 855 850 849 850 850 851 852 850 850 854 857 858 863 866 863 862 863 849 831 824 822 815 816 829 838 839 838 834 831 830 829 828 826 822 820 818 816 815 812 810 808 805 802 800 797 795 794 793 792 790 789 788 787 786 785 784 783 782 780 778 776 772 769 766 763 759 757 755 753 751 750 748 746 744 742 741 739 738 737 735 733
894 892 876 857 857 860 854 852 853 851 854 857 856 857 859 860 862 864 858 853 862 868 859 847 836 821 816 826 837 838 835 835 833 832 833 831 828 825 822 819 816 814 812 809 807 804 801 799 796 794 792 791 791 789 788 786 785 784 784 783 782 781 779 777 774 771 768 765 762 759 756 753 751 750 749 747 745 743 741 740 738 737 735 733 731 729
895 895 888 875 870 865 854 850 851 852 856 858 859 860 862 865 868 871 864 853 857 862 860 859 847 825 822 833 837 832 829 830 833 834 833 829 826 822 819 817 815 812 809 806 804 800 797 795 792 791 791 789 788 787 785 784 783 782 782 781 780 778 776 773 770 767 764 761 758 755 753 751 749 747 746 744 742 741 739 738 736 734 732 730 728 726
899 900 897 888 876 861 852 853 856 858 856 855 858 860 862 867 871 878 877 861 856 858 854 854 845 829 830 836 833 827 825 828 833 834 830 826 822 819 816 815 813 810 807 803 800 797 794 792 791 790 789 787 786 784 783 782 782 781 780 779 778 775 773 770 767 764 760 757 755 752 750 749 747 745 743 741 740 738 737 735 733 731 729 726 725 723
900 901 894 880 865 851 847 854 859 859 857 856 858 859 863 868 870 875 877 870 868 862 853 854 845 830 831 835 829 825 827 832 834 831 827 823 819 818 815 813 810 806 804 801 798 795 793 791 790 789 787 786 785 783 782 781 781 780 779 777 775 773 770 767 764 760 757 754 752 750 748 746 744 743 741 739 738 736 734 731 729 727 725 723 721 720
895 895 895 889 878 864 854 855 855 853 856 859 860 862 865 868 871 875 875 874 873 863 860 867 855 832 828 830 826 827 833 836 833 829 827 824 819 817 814 810 808 804 801 799 797 795 792 790 789 787 786 785 784 782 781 781 780 779 777 775 773 770 768 765 761 758 755 753 750 748 746 744 742 741 739 737 735 733 731 728 726 724 721 719 718 716
899 900 901 899 899 894 883 874 864 856 858 860 860 864 868 872 878 879 877 880 879 869 870 874 857 835 829 829 827 831 836 835 831 829 827 825 821 817 813 809 806 803 801 799 797 794 793 791 789 788 787 785 783 781 781 780 779 777 775 773 771 769 765 762 759 756 753 751 749 746 744 742 741 739 737 735 732 730 728 725 723 721 718 716 714 713
906 908 902 897 898 897 890 880 871 868 871 869 865 869 874 879 882 881 882 886 883 876 872 866 855 843 834 832 833 836 837 833 830 828 825 823 820 817 813 809 806 804 802 799 796 794 793 793 791 789 788 785 782 781 780 779 777 776 773 771 769 767 764 760 757 754 752 749 747 745 743 741 739 737 734 732 730 727 725 723 721 718 716 713 711 710
907 903 899 898 895 890 886 882 876 878 881 875 871 876 881 884 885 885 888 886 882 881 872 856 853 850 839 836 839 839 837 835 832 827 823 821 820 816 812 808 806 805 802 798 796 795 794 793 791 790 788 785 782 781 779 778 777 775 772 770 767 765 762 758 755 753 750 748 746 743 741 739 737 735 732 729 727 724 722 720 718 716 714 711 709 707
908 903 901 901 893 888 890 886 879 881 881 875 877 884 887 888 887 887 888 884 882 885 873 854 852 852 842 840 843 841 839 838 833 827 823 820 819 814 811 809 808 805 801 799 798 797 796 795 793 791 789 786 783 781 780 778 776 773 771 768 766 763 760 757 754 751 749 746 744 742 739 737 735 732 729 727 724 722 720 718 715 713 711 709 706 705
909 901 903 907 898 889 887 883 878 878 876 873 880 889 889 887 886 885 884 880 878 878 869 856 855 853 847 847 847 843 841 838 832 828 825 821 816 813 812 812 810 806 803 802 802 801 800 798 795 793 789 786 785 783 781 778 775 772 770 768 765 762 758 755 753 750 748 745 743 740 738 735 732 730 727 725 722 720 717 715 712 710 708 705 703 701
907 900 905 911 903 888 880 876 874 875 877 880 886 890 889 887 885 883 880 876 873 870 863 860 860 856 852 851 848 844 841 836 831 829 826 822 817 815 815 815 812 810 808 808 808 806 803 799 797 794 792 789 787 784 781 777 774 772 770 767 764 760 757 754 752 749 747 744 741 739 736 733 731 728 726 723 720 718 715 712 710 708 705 703 701 698
909 907 909 912 907 890 875 873 875 875 876 883 891 892 890 890 887 882 879 876 872 867 864 867 869 861 853 850 846 842 839 835 833 832 827 822 820 820 819 818 816 815 815 814 812 808 805 802 800 797 794 791 788 784 780 777 775 773 769 766 762 759 756 753 751 748 746 743 740 737 735 732 729 727 724 721 719 716 713 711 708 705 703 700 698 695
918 915 911 916 911 890 876 879 882 880 877 883 894 896 890 887 885 881 878 874 870 870 874 876 872 861 853 850 845 840 838 837 838 836 830 825 825 825 824 823 821 820 821 818 814 811 809 806 803 800 796 792 788 785 781 779 776 772 769 765 761 758 756 753 750 748 744 742 739 736 734 731 728 725 722 720 717 714 711 709 706 703 701 698 695 693
922 919 916 921 915 895 886 886 882 881 884 885 888 891 888 884 883 882 878 872 868 871 877 876 868 861 857 853 848 843 841 842 843 839 834 832 832 830 828 826 825 825 823 819 817 815 812 809 805 802 797 793 789 786 783 780 777 773 769 766 762 759 756 753 750 747 744 741 738 735 732 730 727 724 721 718 715 712 709 706 703 701 698 695 692 690
917 918 918 921 917 901 890 891 891 888 885 884 883 885 886 884 882 881 877 872 871 874 877 876 869 863 859 855 852 848 845 846 846 840 835 836 836 834 831 828 827 826 822 820 819 816 812 810 806 802 798 794 790 787 784 780 777 773 770 766 763 760 757 753 750 747 743 740 737 734 731 728 725 722 719 716 713 710 707 704 701 698 695 692 690 687
916 920 920 917 914 901 891 902 910 892 874 880 888 886 885 885 884 883 877 872 874 877 878 876 870 863 859 856 855 853 848 846 844 840 838 839 838 837 835 831 828 826 823 822 821 817 814 811 807 803 800 796 792 789 785 781 777 774 770 767 764 760 757 754 750 747 743 740 736 733 730 727 724 720 717 714 711 708 705 702 699 696 693 690 687 684
914 917 919 917 915 911 906 909 905 881 871 887 895 890 889 889 886 887 884 875 873 877 878 875 869 865 862 859 857 855 849 842 839 838 837 839 839 839 839 835 831 829 827 826 823 819 816 813 809 806 802 797 794 790 786 782 778 774 771 767 764 761 757 754 751 746 743 739 736 733 729 726 722 719 715 712 709 706 703 700 697 694 691 688 685 682
917 917 919 917 916 917 917 912 900 884 883 898 902 894 891 890 885 886 887 879 872 875 878 875 871 868 866 863 861 857 849 842 839 836 836 838 839 840 839 836 833 832 830 827 824 820 818 814 810 807 803 798 795 791 787 783 779 775 772 768 765 761 758 754 750 746 743 739 735 732 728 724 721 718 714 710 707 704 701 698 695 692 689 686 683 680
918 921 922 919 918 920 922 923 917 902 894 900 901 892 889 891 885 882 883 879 874 876 877 875 874 873 871 870 868 863 857 851 844 839 838 839 840 840 839 836 834 834 833 829 825 822 819 816 811 807 803 799 794 791 787 783 780 776 773 769 765 762 758 754 750 746 742 738 734 730 727 723 720 716 712 709 706 702 699 696 693 690 687 684 681 678
913 919 922 921 922 924 924 923 917 906 901 902 898 892 891 888 882 886 890 881 873 876 878 877 878 878 876 875 872 870 870 865 855 847 845 845 845 844 842 839 836 836 833 829 827 824 820 817 813 808 804 799 795 792 788 784 780 777 773 770 766 762 758 754 750 746 742 738 734 730 726 722 718 715 711 707 704 701 698 695 691 688 686 683 681 678
916 922 924 923 924 925 923 920 913 904 904 904 896 893 891 883 883 898 902 887 877 880 882 881 883 882 880 879 877 874 874 872 866 859 853 851 849 847 844 843 841 839 835 831 828 825 821 818 814 810 806 801 797 793 788 784 781 777 773 770 766 762 759 755 750 746 741 737 733 729 725 721 718 714 710 706 703 699 696 693 691 688 685 682 680 677
923 925 926 926 925 919 914 916 912 898 896 899 894 890 892 894 901 906 899 889 887 887 885 885 886 884 882 881 879 878 875 871 867 863 859 855 852 849 846 845 842 839 836 832 829 826 822 818 814 810 806 802 798 794 789 785 782 778 774 770 767 763 759 754 750 746 741 736 732 728 724 720 716 713 709 705 701 698 695 692 690 687 684 681 678 676
927 928 928 925 923 916 913 919 916 899 891 894 894 894 899 909 914 907 896 894 894 890 889 889 888 886 885 882 880 878 874 870 867 865 861 858 855 852 849 846 843 840 837 833 829 827 823 819 815 811 806 802 798 794 790 786 782 779 775 771 767 763 758 754 750 745 741 736 731 727 723 719 715 712 708 704 701 697 694 691 688 686 683 680 677 674
926 931 934 930 925 925 925 923 913 900 896 899 902 905 908 910 910 907 903 900 895 892 893 891 888 889 888 884 881 878 873 870 867 864 862 859 857 854 851 848 845 842 837 834 831 827 823 819 815 811 807 803 799 794 791 787 783 779 775 771 767 762 758 753 749 744 740 735 731 726 722 718 714 711 707 704 700 697 693 690 687 684 682 679 677 674
923 927 932 931 926 927 925 916 905 901 904 907 907 909 909 908 907 908 907 903 898 896 896 894 891 890 888 885 883 878 873 871 869 866 864 861 858 856 852 849 847 843 838 835 832 828 825 820 816 812 807 803 799 795 791 788 783 779 775 771 767 762 757 753 748 743 739 735 730 726 721 717 714 710 706 703 700 696 693 690 687 684 681 679 676 674
923 923 926 926 923 921 915 906 904 907 908 909 910 910 910 908 907 907 906 904 901 899 899 898 894 891 888 886 883 878 875 873 871 868 866 863 859 857 854 850 847 844 839 835 831 828 825 820 816 812 807 802 798 795 791 788 784 780 775 771 766 762 758 753 748 743 738 734 730 725 721 717 712 709 705 702 699 695 692 689 686 684 681 678 676 674
924 923 924 924 924 924 914 903 904 909 907 907 909 908 908 908 908 908 908 905 903 901 900 899 896 893 891 888 883 880 877 875 873 870 867 864 861 857 854 851 847 844 840 837 833 829 825 820 816 811 807 802 798 795 791 787 784 780 776 771 766 762 757 753 748 743 738 734 729 725 721 717 712 708 704 701 698 695 691 688 686 683 681 678 676 673
924 921 922 924 926 925 914 905 908 911 908 907 909 907 907 907 907 908 908 906 905 904 901 899 896 893 890 887 884 882 879 876 875 872 868 866 862 858 855 852 848 844 841 837 834 830 825 821 817 812 808 804 799 795 792 787 783 779 775 770 766 761 757 752 748 743 738 734 729 725 721 717 713 709 704 700 697 694 691 688 685 682 680 678 676 673
923 920 922 924 923 919 911 907 910 910 905 904 906 907 907 907 905 906 907 906 906 904 901 899 896 894 891 888 885 883 880 878 876 873 870 867 863 859 856 853 849 846 842 838 834 831 827 822 818 814 809 805 800 796 792 787 783 778 774 770 765 761 756 752 747 743 738 734 729 725 721 717 714 710 706 701 697 693 690 688 686 683 680 677 675 673
921 921 922 924 921 915 910 910 914 915 910 906 905 906 907 907 907 906 906 905 904 902 900 898 895 893 891 889 886 884 882 878 876 875 872 868 864 861 857 853 849 846 842 838 835 831 827 823 819 814 810 805 801 796 792 787 783 778 774 770 765 761 757 752 747 743 738 734 730 726 722 718 714 710 707 703 699 694 690 686 685 683 681 678 675 673
919 919 921 923 921 915 910 911 915 917 913 908 907 909 909 909 909 908 906 905 903 902 900 897 894 891 888 887 887 885 883 880 878 875 872 868 865 862 858 854 850 846 842 839 835 830 826 822 817 814 809 805 801 796 792 787 783 778 774 770 765 761 757 753 748 743 739 734 731 726 723 719 715 711 708 704 701 697 692 687 683 681 680 678 675 672